Location: Czekan�w
(50.3488°N, 18.7344°E)
Time: 19:43:20
(UTC+00:00)

Cosmos 2061 Rocket - Pass Details

Date: 17 February 2020
Orbit: 965 x 1014 km, 82.9° (Epoch: 30 March)

Event Time Altitude Azimuth Distance (km) Brightness Sun altitude
Rises 04:59:57 0° 347° (NNW) 3,721 6.8 -9.2°
Reaches altitude 10° 05:02:33 10° 343° (NNW) 2,760 6.1 -8.8°
Maximum altitude 05:08:41 55° 268° (W) 1,164 4.1 -7.8°
Drops below altitude 10° 05:14:42 10° 192° (SSW) 2,711 6.3 -6.9°
Sets 05:17:14 0° 188° (S) 3,649 7.0 -6.5°
